Flag for Australia Weather past 2 weeks in The Settlement, Christmas Island, Australia

Now
77 °F

Mostly cloudy.


Feels Like: 78 °F
Forecast: 77 / 82 °F
Wind: 10 mph from Southeast

Location: Christmas Island Aerodrome

Current Time: Dec 19, 2014 at 4:08:43 AM

Latest Report: Dec 19, 2014 at 3:00 AM


Visibility: 1 mi

Pressure: 29.86 "Hg

Humidity: 94%

Dew point: 75 °F

Location of The SettlementLocation

Historic Weather in The Settlement — Graph

°F

The Settlement temperature yesterday

Maximum temperature yesterday: 82 °F (at 9:00 AM)
Minimum temperature yesterday: 73 °F (at 2:00 AM)
Average temperature yesterday: 77 °F

Past Weeks' High & Low Weather Summary

 TemperatureHumidityPressure
High84 °F (Dec 16, 12:00 PM)100% (Dec 5, 3:00 AM)29.95 "Hg (Dec 5, 3:00 AM)
Low72 °F (Dec 8, 5:00 AM)66% (Dec 6, 10:00 AM)29.77 "Hg (Dec 17, 4:00 PM)
Average77 °F88%29.88 "Hg
* Reported Dec 4 3:00 AM — Dec 19 3:00 AM, The Settlement, Weather by CustomWeather, © 2014

Note: Actual official high and low records may vary slightly from our data, if they occured in-between our weather recording intervals... More about our weather records

Advertising

The Settlement weather history for previous 24 hours

 ConditionsComfort  
Time TempWeatherWind HumidityBarometerVisibility
3:00 AM
Dec 19
77 °FMostly cloudy.10 mph94%29.86 "Hg1 mi
2:00 AM77 °FMostly cloudy.12 mph94%29.86 "HgN/A
1:00 AM77 °FLight rain. Mostly cloudy.10 mph94%29.86 "HgN/A
12:00 AM77 °FMostly cloudy.10 mph100%29.89 "HgN/A
11:00 PM
Dec 18
77 °FPassing clouds.10 mph94%29.89 "HgN/A
10:00 PM77 °FPartly cloudy.9 mph100%29.92 "HgN/A
9:00 PM77 °FSprinkles. Mostly cloudy.9 mph100%29.89 "HgN/A
8:00 PM77 °FSprinkles. Partly cloudy.6 mph94%29.89 "HgN/A
7:00 PM77 °FClear.No wind94%29.86 "HgN/A
6:00 PM77 °FMostly cloudy.6 mph94%29.83 "HgN/A
5:00 PM79 °FSunny.5 mph89%29.83 "HgN/A
4:02 PM79 °FSprinkles. More clouds than sun.5 mph89%29.80 "HgN/A
3:00 PM81 °FSprinkles. More clouds than sun.2 mph84%29.83 "HgN/A
2:00 PM81 °FMostly cloudy.2 mph84%29.83 "HgN/A
1:00 PM79 °FSprinkles. Cloudy.5 mph89%29.86 "HgN/A
12:00 PM81 °FSprinkles. Mostly cloudy.6 mph84%29.86 "HgN/A
11:00 AM81 °FBroken clouds.2 mph84%29.89 "HgN/A
10:00 AM79 °FLots of rain. Mostly cloudy.5 mph89%29.92 "Hg2 mi
9:00 AM82 °FPartly sunny.5 mph79%29.89 "HgN/A
8:00 AM81 °FBroken clouds.5 mph79%29.89 "HgN/A
7:00 AM79 °FSunny.No wind94%29.86 "HgN/A
6:00 AM73 °FSunny.No wind94%29.86 "HgN/A
5:00 AM73 °FClear.No wind94%29.83 "HgN/A
4:00 AM73 °FClear.No wind94%29.83 "HgN/A
Weather by CustomWeather, © 2014

See weather overviewHow to use our weather pages